Vertical_Velocity
-3 -3 -5 3 13 9 -4 9 2 -0 -5 -3 0 2 8 10 8 5 5 0 5 -2 1 -0 -1 -1 0 -2 -1 1 -0 -2 2 2 -1 -2 -0 -0 -0 -2 2 2 1 -1 0 1 1 1 -1
-6 4 4 0 10 6 -0 4 1 4 0 -2 -2 0 -2 17 20 4 9 -9 -1 -4 4 -0 -1 -2 -3 -2 -1 -1 1 0 -1 0 2 1 -0 -2 -0 -1 -1 0 0 -0 -2 -3 -1 1 1
-4 -4 13 4 1 2 4 2 4 3 -1 1 3 11 -1 7 -8 3 -5 -5 -1 -2 -5 -0 -1 -3 -2 -1 -5 -2 -1 -1 1 0 1 1 -1 0 -1 -3 -2 -1 -2 0 1 -0 -3 -0 -1
2 14 3 9 -3 8 3 4 2 -0 -0 -2 -1 -1 -2 -1 -3 -2 0 -4 -3 -0 -4 -6 -1 -3 -1 -4 -7 -8 -7 -1 -4 -2 -1 -2 -0 -3 -1 -1 -2 -0 1 0 -1 0 1 -1 -2
-4 2 3 4 -5 4 1 2 -2 1 -0 -0 3 15 4 5 -4 -2 -3 2 -3 0 -2 -2 3 1 -3 -3 -0 -2 -1 -2 -2 -2 -1 -2 -1 -4 -3 -0 -3 -5 -1 -2 0 -2 -1 -0 1
8 8 5 -0 -1 2 0 -2 2 -0 -2 -0 -0 4 3 -3 -5 -2 -3 -2 0 -7 -2 -1 -1 1 1 -3 -3 -0 -1 0 0 -0 1 -1 -1 0 -2 -2 -4 -1 -1 -1 -2 -4 -1 -1 0
11 6 -3 0 1 2 -2 -5 1 -0 1 4 -5 2 15 -1 1 -5 -3 -1 2 2 -3 2 1 2 2 0 3 1 -0 -2 -3 -2 -1 1 2 3 5 -1 -2 -1 -2 -1 -0 -2 -2 -3 -0
11 11 1 -3 -2 -3 7 -2 -7 -1 5 -7 -16 2 14 5 0 -6 -1 2 1 2 -3 -0 -1 -1 0 -0 0 1 0 1 1 2 3 2 2 2 2 4 2 2 -1 -3 -3 0 -2 -1 -3
-0 8 -0 -8 1 -3 2 -1 5 -1 -3 0 2 3 2 6 -5 5 -3 -4 -5 -3 -3 2 1 2 1 -2 -1 -2 -4 -1 2 2 3 4 1 -2 -4 -0 -0 -1 1 2 -3 -0 -2 -2 -3
9 7 -8 1 3 1 2 -3 -2 6 2 -3 2 -1 4 -2 8 3 16 -2 -2 -2 -4 -6 0 3 3 1 1 2 2 -3 -5 -7 -8 -6 -2 -3 1 -0 -5 -1 0 -1 -2 -4 -2 -0 -1
-8 -2 -4 -10 3 -1 -0 1 2 1 -1 -4 6 18 6 -4 -1 -5 1 13 -7 -4 -2 -4 -7 -1 1 2 1 -3 -2 2 3 0 1 3 -0 -2 4 -1 0 -1 -4 -0 1 1 -7 -4 -3
17 -2 2 -10 -4 3 0 -2 -2 5 -7 4 6 6 -4 6 16 -4 -5 -1 8 14 -1 -2 -4 -6 -3 1 16 3 -1 -4 -6 -3 -1 -4 1 1 1 -3 -3 -2 2 2 -7 -7 4 0 -1
9 -4 0 -2 -3 -0 1 -2 -5 -5 2 4 9 -12 2 -1 -3 -8 -5 -6 -3 9 43 7 -3 -1 -5 -2 -1 20 14 3 -4 -3 -4 -3 -4 -2 1 1 -1 1 -3 -1 -1 -1 -9 -3 -1
-3 2 -3 -2 -4 2 7 -6 18 -11 4 2 -2 1 -0 0 -2 -3 0 -4 -4 -10 -3 16 1 -3 -4 -5 -5 3 -4 2 19 2 2 0 1 2 -1 -1 -1 3 0 -2 3 1 -4 -4 -6
-2 6 -2 -3 -7 -6 6 3 -3 -10 17 -4 -6 -6 -5 4 4 -1 1 -0 -4 4 -12 2 27 -1 -0 1 -4 1 -4 -5 3 28 8 1 1 4 3 -1 -3 -4 3 6 10 5 3 -2 -1
6 10 7 -16 2 -16 14 -15 -10 7 6 0 6 -1 -3 -5 1 1 6 5 0 -3 -1 7 4 10 9 3 1 -3 -5 5 -3 2 4 10 3 -3 -1 1 -1 3 0 0 14 11 3 1 -3
1 -2 3 -3 -1 -0 1 -6 -11 -2 1 -2 5 6 2 -3 -4 -1 6 -1 -1 1 -1 -3 -2 -4 -9 -3 -2 -1 -2 -4 -0 2 3 -1 2 1 -4 2 -1 9 0 -4 3 4 2 1 1
-5 4 2 -2 6 3 3 -4 -4 3 -3 -6 1 11 0 4 1 -2 2 1 2 1 2 0 0 3 6 1 0 -1 -2 0 4 3 -1 4 -5 6 2 3 3 10 4 10 4 -2 1 -1 0
3 5 2 -5 -2 2 -3 -1 -4 -5 4 3 2 5 0 0 -5 2 -0 6 -0 1 1 2 -1 -1 -3 9 8 17 6 -2 -11 -10 -0 3 10 2 2 3 4 -1 5 3 0 8 2 0 -3
3 2 -7 -7 -3 13 -1 -6 -4 -0 -4 1 2 8 3 2 2 2 0 0 -1 -1 2 -2 -3 -2 -2 -3 -2 -1 -3 0 2 1 -4 -4 -4 -0 3 -2 -6 9 -2 4 9 8 8 5 3
-2 2 -1 1 -4 -4 5 -5 -1 -9 3 0 5 1 -1 -3 0 0 1 -3 -1 -3 -2 1 -1 -2 -2 0 1 -5 -2 3 -2 -4 -7 -2 -0 -1 1 1 -3 -2 3 -3 -2 8 5 -6 0
6 -3 2 2 10 -2 10 -10 -1 2 3 2 4 1 1 6 6 1 -1 -0 3 -1 2 2 4 2 -0 -1 -3 -2 -0 1 4 -3 2 -5 -2 -6 1 -2 3 2 10 14 -13 7 17 12 1
-19 3 2 1 2 9 -7 15 -22 2 7 4 3 2 -1 -1 -4 1 2 1 -3 -2 -5 -2 -2 -2 -1 -6 -3 -3 -3 -1 1 -1 3 -1 -4 -3 -0 1 -1 -2 -4 -4 4 12 3 32 6
-3 4 2 2 4 10 -11 13 -12 1 -12 5 5 4 1 -6 -3 8 1 3 6 -6 -10 -15 -10 -2 -1 1 3 -2 -2 -6 -5 -2 1 -3 3 -1 3 -2 2 3 5 2 3 1 -7 9 -1
11 7 1 10 9 -10 -3 12 -21 1 1 -9 -3 3 2 -5 3 -2 5 1 -3 4 11 9 13 2 2 -6 -1 6 2 1 -1 -0 -1 2 4 -3 -0 -3 0 1 -3 -2 2 2 3 9 2
-7 -4 -3 -3 1 -4 -2 0 11 4 2 1 -0 -3 -0 8 -2 5 5 -4 -3 -1 -2 -5 -6 -6 -10 -1 -4 -1 3 7 8 0 4 8 3 1 1 -5 -5 -2 2 1 1 1 -1 -0 -0
-6 11 -17 9 -0 7 -3 6 5 3 5 4 2 0 6 0 -3 -3 -3 -0 -2 -4 -0 -1 -6 -9 -10 -5 2 -2 -6 -7 -8 -3 -4 -3 7 2 4 8 9 0 -3 -2 -2 -2 1 -1 -3
13 -10 14 3 2 1 -2 -2 -6 7 4 3 4 2 1 -0 2 1 0 -1 -5 -5 -5 -3 2 -2 -3 12 3 -3 0 4 4 6 7 13 21 24 20 2 -5 -9 -2 15 -3 -1 3 -4 -0
7 4 4 1 0 0 0 1 3 -3 -3 -2 1 -1 -1 2 -2 -4 -3 -1 -3 3 -2 -5 -7 3 -12 -6 4 -6 1 -13 -8 5 0 -0 7 -0 0 39 37 12 2 -5 2 0 -4 -3 -1
-3 -7 -0 5 -3 -3 -1 5 0 -2 -1 -2 -0 0 5 -3 -6 -2 -1 -6 -4 -3 -4 -3 -5 10 5 6 1 -1 -3 4 2 4 -0 -5 -7 -12 -50 -31 37 20 14 21 16 -3 -2 -3 -3
Height
1504 1503 1504 1503 1505 1489 1481 1471 1466 1476 1481 1485 1483 1483 1484 1486 1489 1508 1505 1505 1505 1502 1505 1507 1511 1514 1517 1520 1522 1524 1527 1530 1533 1534 1536 1538 1539 1541 1542 1543 1544 1544 1546 1547 1548 1548 1549 1550 1551
1503 1503 1505 1500 1498 1491 1474 1465 1473 1478 1485 1484 1483 1482 1487 1491 1497 1503 1504 1503 1506 1502 1505 1507 1511 1514 1517 1521 1522 1525 1529 1531 1533 1536 1537 1539 1541 1542 1543 1544 1545 1546 1547 1548 1549 1550 1551 1552 1552
1503 1502 1503 1493 1486 1487 1477 1467 1473 1480 1484 1483 1480 1482 1489 1498 1501 1505 1506 1505 1507 1504 1505 1506 1510 1513 1517 1520 1523 1526 1529 1532 1534 1536 1538 1539 1541 1542 1543 1544 1546 1546 1547 1549 1549 1550 1551 1552 1553
1503 1502 1499 1493 1482 1471 1473 1475 1481 1482 1484 1485 1483 1491 1500 1500 1502 1506 1506 1507 1507 1506 1503 1505 1509 1511 1514 1517 1521 1525 1528 1531 1533 1535 1537 1539 1540 1542 1543 1544 1546 1547 1547 1549 1550 1551 1551 1552 1553
1504 1498 1492 1486 1474 1470 1475 1481 1486 1482 1487 1488 1485 1496 1499 1502 1503 1504 1505 1506 1505 1505 1504 1505 1508 1510 1512 1516 1520 1523 1526 1528 1531 1533 1535 1537 1538 1540 1542 1543 1545 1547 1547 1548 1550 1551 1551 1552 1553
1501 1493 1492 1485 1471 1472 1480 1486 1487 1486 1489 1491 1489 1490 1498 1501 1502 1503 1503 1504 1505 1503 1504 1504 1507 1510 1512 1516 1520 1523 1525 1528 1531 1533 1534 1536 1536 1538 1539 1541 1543 1545 1546 1547 1548 1550 1551 1552 1553
1498 1490 1487 1477 1473 1477 1479 1486 1488 1488 1487 1491 1494 1492 1498 1499 1500 1501 1502 1502 1503 1503 1502 1504 1506 1509 1512 1515 1518 1521 1524 1527 1529 1532 1534 1535 1536 1537 1538 1540 1541 1543 1545 1546 1548 1548 1550 1551 1552
1497 1491 1488 1476 1479 1477 1478 1487 1491 1492 1489 1492 1495 1489 1494 1497 1500 1500 1501 1502 1503 1503 1502 1504 1505 1508 1510 1514 1517 1520 1523 1526 1528 1530 1532 1534 1535 1537 1538 1539 1540 1542 1543 1544 1545 1547 1548 1549 1551
1496 1497 1491 1476 1472 1476 1481 1486 1489 1492 1492 1492 1492 1493 1494 1496 1501 1502 1502 1502 1502 1502 1503 1503 1505 1506 1508 1512 1515 1518 1521 1524 1527 1529 1531 1532 1533 1534 1536 1538 1539 1540 1541 1542 1544 1545 1546 1547 1549
1493 1492 1482 1469 1473 1474 1478 1485 1488 1490 1489 1489 1490 1492 1494 1497 1499 1500 1500 1498 1498 1499 1501 1502 1503 1504 1506 1509 1511 1514 1516 1518 1521 1524 1526 1529 1532 1533 1534 1535 1536 1537 1539 1540 1541 1542 1543 1545 1546
1487 1489 1478 1474 1476 1480 1482 1483 1485 1486 1487 1486 1487 1488 1492 1495 1498 1499 1499 1499 1496 1497 1498 1501 1502 1504 1506 1509 1510 1514 1516 1517 1518 1520 1523 1525 1528 1531 1533 1533 1534 1534 1535 1537 1537 1538 1539 1541 1543
1484 1481 1481 1479 1479 1481 1482 1484 1483 1483 1483 1484 1486 1489 1492 1496 1497 1495 1495 1496 1497 1498 1498 1499 1501 1503 1506 1509 1512 1513 1514 1515 1517 1519 1521 1522 1526 1528 1529 1530 1532 1532 1532 1532 1532 1534 1536 1537 1539
1480 1478 1478 1479 1480 1480 1482 1482 1484 1483 1483 1485 1486 1491 1495 1497 1498 1498 1498 1497 1497 1498 1502 1498 1499 1501 1504 1508 1510 1515 1515 1515 1516 1517 1519 1521 1523 1526 1527 1528 1527 1528 1529 1530 1530 1528 1530 1532 1535
1478 1476 1475 1477 1477 1477 1480 1480 1481 1481 1482 1484 1487 1492 1496 1499 1500 1500 1500 1500 1499 1497 1498 1500 1500 1501 1504 1506 1509 1511 1515 1516 1517 1517 1518 1519 1521 1523 1524 1526 1526 1526 1527 1527 1527 1525 1527 1528 1531
1480 1479 1476 1476 1476 1475 1477 1477 1474 1474 1477 1482 1488 1492 1496 1498 1499 1499 1499 1499 1498 1499 1498 1501 1501 1500 1502 1505 1508 1510 1511 1514 1516 1518 1518 1518 1521 1522 1522 1522 1523 1523 1525 1526 1526 1524 1525 1526 1529
1481 1479 1483 1469 1466 1467 1474 1478 1463 1459 1471 1478 1482 1487 1493 1498 1500 1501 1500 1499 1498 1497 1497 1498 1499 1501 1503 1504 1505 1507 1510 1511 1511 1513 1514 1515 1516 1518 1518 1519 1518 1519 1521 1523 1523 1523 1522 1523 1524
1476 1482 1474 1462 1455 1461 1469 1473 1463 1464 1469 1475 1477 1481 1487 1495 1500 1501 1501 1499 1498 1497 1496 1497 1499 1501 1504 1504 1505 1506 1508 1509 1510 1510 1510 1510 1510 1512 1513 1514 1515 1517 1516 1518 1519 1518 1517 1518 1520
1477 1469 1463 1463 1456 1462 1466 1469 1464 1464 1468 1471 1472 1476 1483 1492 1498 1501 1502 1500 1500 1499 1498 1498 1499 1502 1503 1503 1503 1504 1506 1507 1508 1507 1508 1507 1507 1508 1509 1509 1510 1511 1511 1511 1511 1512 1511 1512 1512
1463 1459 1459 1452 1447 1459 1462 1462 1460 1460 1461 1462 1466 1472 1481 1489 1497 1501 1502 1501 1500 1500 1501 1501 1501 1501 1502 1504 1506 1506 1505 1503 1504 1506 1505 1505 1504 1503 1504 1503 1503 1504 1504 1504 1505 1505 1504 1505 1507
1461 1463 1462 1456 1451 1452 1455 1456 1454 1455 1455 1458 1461 1468 1478 1487 1495 1500 1501 1501 1501 1501 1502 1502 1501 1501 1502 1503 1504 1505 1504 1503 1503 1501 1501 1501 1500 1501 1500 1498 1498 1497 1498 1496 1496 1497 1495 1496 1498
1456 1456 1458 1462 1454 1452 1455 1458 1453 1448 1450 1456 1462 1469 1478 1487 1493 1499 1501 1501 1500 1500 1501 1502 1502 1501 1501 1503 1502 1502 1503 1502 1501 1499 1497 1496 1495 1494 1492 1491 1490 1491 1491 1489 1490 1488 1488 1487 1486
1458 1451 1456 1460 1465 1474 1455 1470 1440 1442 1449 1455 1462 1470 1478 1485 1492 1497 1499 1500 1500 1500 1500 1501 1501 1502 1502 1500 1500 1500 1499 1499 1499 1496 1494 1492 1490 1488 1486 1485 1484 1482 1481 1479 1480 1479 1479 1476 1476
1452 1449 1452 1455 1459 1463 1462 1464 1447 1438 1455 1458 1465 1472 1479 1487 1492 1496 1498 1499 1499 1500 1500 1500 1500 1501 1501 1501 1500 1499 1497 1496 1494 1492 1490 1487 1485 1485 1481 1478 1477 1475 1474 1474 1473 1469 1467 1463 1469
1446 1453 1455 1460 1466 1474 1461 1460 1446 1429 1440 1455 1465 1472 1480 1486 1491 1494 1496 1498 1498 1499 1501 1500 1500 1500 1499 1498 1497 1495 1493 1491 1489 1488 1485 1483 1480 1478 1477 1473 1472 1469 1467 1466 1465 1463 1461 1458 1458
1448 1460 1476 1476 1472 1467 1442 1445 1438 1428 1422 1445 1461 1471 1480 1486 1489 1491 1493 1495 1497 1498 1499 1499 1498 1497 1497 1495 1493 1492 1490 1487 1484 1482 1479 1478 1475 1472 1470 1468 1466 1463 1461 1460 1458 1457 1455 1454 1453
1443 1450 1462 1472 1457 1449 1434 1440 1442 1437 1441 1450 1461 1472 1479 1484 1487 1489 1492 1494 1495 1496 1495 1494 1493 1492 1492 1490 1488 1486 1483 1482 1479 1477 1475 1473 1471 1468 1466 1464 1459 1458 1455 1453 1452 1450 1448 1446 1445
1437 1448 1440 1450 1445 1456 1446 1447 1446 1446 1450 1455 1463 1471 1477 1482 1486 1488 1490 1492 1492 1491 1491 1490 1489 1489 1488 1486 1483 1481 1479 1476 1473 1471 1470 1467 1465 1464 1461 1458 1455 1451 1449 1447 1446 1444 1443 1441 1440
1430 1432 1452 1450 1467 1468 1442 1434 1432 1446 1453 1457 1464 1470 1476 1481 1483 1486 1487 1487 1488 1488 1488 1488 1487 1485 1484 1482 1479 1477 1475 1474 1470 1467 1464 1462 1460 1458 1455 1451 1447 1445 1445 1443 1439 1438 1436 1434 1434
1434 1436 1434 1437 1444 1450 1445 1433 1424 1436 1448 1457 1464 1471 1475 1478 1481 1483 1485 1486 1486 1486 1485 1485 1484 1482 1480 1478 1475 1473 1471 1468 1466 1462 1459 1455 1451 1449 1444 1439 1443 1438 1437 1437 1434 1434 1431 1429 1427
1420 1426 1430 1444 1444 1440 1444 1444 1434 1442 1451 1458 1465 1469 1473 1476 1479 1481 1482 1483 1483 1483 1482 1481 1480 1478 1476 1473 1471 1469 1467 1463 1461 1458 1454 1450 1446 1443 1444 1441 1436 1435 1429 1431 1427 1427 1425 1422 1420